This is the latest recevied weather packets stored in our database for station/object EA6AMI-5. If no packets are shown the sender has not sent any weather packets the latest 10 day(s).
| Time | Temp. | Humidity | Pressure | Rain* | Wind** | Luminosity | Snow |
|---|---|---|---|---|---|---|---|
| 1787704563 | 25.56° C | 56% | 1014.7 hPa | 0 mm | - | 0 W/m² | - |
| 1787704024 | 25.56° C | 60% | 1015.8 hPa | 0 mm | - | 0 W/m² | - |
| 1787703483 | 25.56° C | 57% | 1015.5 hPa | 0 mm | - | 0 W/m² | - |
| 1787702943 | 25.56° C | 59% | 1016.2 hPa | 0 mm | - | 0 W/m² | - |
| 1787702403 | 25.56° C | 58% | 1015.3 hPa | 0 mm | - | 0 W/m² | - |
| 1787702043 | 25° C | 59% | 1016 hPa | 0 mm | - | 0 W/m² | - |
| 1787701503 | 25.56° C | 61% | 1014.9 hPa | 0 mm | - | 0 W/m² | - |
| 1787700964 | 25.56° C | 60% | 1015.9 hPa | 0 mm | - | 0 W/m² | - |
| 1787700423 | 25.56° C | 60% | 1014.6 hPa | 0 mm | - | 0 W/m² | - |
| 1787699884 | 25.56° C | 60% | 1015.9 hPa | 0 mm | - | 0 W/m² | - |
| 1787699343 | 25° C | 62% | 1015.5 hPa | 0 mm | - | 0 W/m² | - |
| 1787698803 | 24.44° C | 64% | 1015.9 hPa | 0 mm | - | 0 W/m² | - |
| 1787698443 | 24.44° C | 64% | 1015.4 hPa | 0 mm | - | 0 W/m² | - |
| 1787697904 | 25° C | 63% | 1014.4 hPa | 0 mm | - | 0 W/m² | - |
| 1787697363 | 25° C | 63% | 1015.5 hPa | 0 mm | - | 0 W/m² | - |
| 1787696823 | 25° C | 63% | 1015.6 hPa | 0 mm | - | 0 W/m² | - |
| 1787696284 | 25° C | 62% | 1015.2 hPa | 0 mm | - | 0 W/m² | - |
| 1787695744 | 25.56° C | 62% | 1015.2 hPa | 0 mm | - | 0 W/m² | - |
| 1787695204 | 25.56° C | 62% | 1015.5 hPa | 0 mm | - | 0 W/m² | - |
| 1787694843 | 25.56° C | 60% | 1015.7 hPa | 0 mm | - | 0 W/m² | - |
| 1787694303 | 25.56° C | 61% | 1015.1 hPa | 0 mm | - | 0 W/m² | - |
| 1787693763 | 25.56° C | 60% | 1014.8 hPa | 0 mm | - | 0 W/m² | - |
| 1787693223 | 25.56° C | 61% | 1015.5 hPa | 0 mm | - | 0 W/m² | - |
| 1787692683 | 25.56° C | 61% | 1015.1 hPa | 0 mm | - | 0 W/m² | - |
| 1787692143 | 25.56° C | 61% | 1015.1 hPa | 0 mm | - | 0 W/m² | - |
* Rain latest hour (hover to see other rain measurements)
** Current wind speed in m/s (hover to see current wind gust speed)